Regional Weather Roundup
Issued by NWS

Home | Current Version | Previous Version | Text Only | Print | Product List | Glossary On
Versions: 1 2 3 4 5 6 7 8 9 10 11 12 13 14 15 16 17 18 19 20 21 22 23 24 25 26 27 28 29 30 31 32 33 34 35 36 37 38 39 40 41 42 43 44 45 46 47 48 49 50
002
ASUS43 KBIS 231210
RWRND

NORTH DAKOTA REGIONAL WEATHER ROUNDUP
NATIONAL WEATHER SERVICE BISMARCK ND
700 AM CDT THU MAR 23 2017

NOTE: "FAIR" INDICATES FEW OR NO CLOUDS BELOW 12,000 FEET WITH NO
SIGNIFICANT WEATHER AND/OR OBSTRUCTIONS TO VISIBILITY.


NDZ001>003-009>011-017-231300-
NORTHWEST NORTH DAKOTA

CITY           SKY/WX    TMP DP  RH WIND       PRES   REMARKS
WILLISTON      FAIR      32  30  92 S5        29.76R
6HR MIN TEMP:  28; 6HR MAX TEMP:  32;

MINOT          FAIR      35  29  78 CALM      29.75R
MINOT AFB      CLOUDY    29  27  94 SE7       29.74S
$$

NDZ018>021-031>035-040>046-231300-
SOUTHWEST NORTH DAKOTA

CITY           SKY/WX    TMP DP  RH WIND       PRES   REMARKS
BISMARCK       LGT RAIN  34  30  85 NW6       29.81F
6HR MIN TEMP:  31; 6HR MAX TEMP:  35; 6HR PCP: TRACE;

DICKINSON      CLOUDY    35  31  85 SE6       29.70F
GARRISON         N/A     31  29  92 S5        29.78R
6HR MIN TEMP:  29; 6HR MAX TEMP:  31;

HETTINGER ARPT CLOUDY    35  32  88 E6        29.71F
$$

NDZ004>008-012>016-024-026-027-054-231300-
NORTHEAST NORTH DAKOTA

CITY           SKY/WX    TMP DP  RH WIND       PRES   REMARKS
GRAND FORKS    CLOUDY    33  21  61 S14       29.87F
GRND FRKS AFB  PTCLDY    32  25  76 S15       29.87F
DEVILS LAKE    FAIR      31  27  85 S9        29.81S
$$

NDZ022-023-025-028>030-036>039-047>053-231300-
SOUTHEAST NORTH DAKOTA

CITY           SKY/WX    TMP DP  RH WIND       PRES   REMARKS
FARGO          PTCLDY    37  25  61 S18G36    29.89F
6HR MIN TEMP:  36; 6HR MAX TEMP:  37;

JAMESTOWN      FAIR      32  28  85 S12       29.81F
$$





USA.gov is the U.S. government's official web portal to all federal, state and local government web resources and services.